View from above orbital plane
|
View from above satellite
|
Ground track
|
The orbit data is extracted from the following two-line orbital elements,
1 21089U 91007A 21066.20334833 .00000019 00000-0 47602-5 0 9992
2 21089 82.9258 328.8658 0027922 281.4074 232.4982 13.74680576509320
Epoch (UTC): | 07 March 2021 04:52:49 |
Eccentricity: | 0.0027922 |
inclination: | 82.9258° |
perigee height: | 962 km |
apogee height: | 1003 km |
right ascension of ascending node: | 328.8658° |
argument of perigee: | 281.4074° |
revolutions per day: | 13.74680576 |
mean anomaly at epoch: | 232.4982° |
orbit number at epoch: | 50932 |
The dashed part of the orbit path shows where the satellite is in the earth's shadow,
|
|